• Processing (Info)

  • MPEC 2017-F38 : 2017 FF1

    The following Minor Planet Electronic Circular may be linked-to from your own Web pages, but must not otherwise be redistributed electronically.

    A form allowing access to any MPEC is at the bottom of this page.


    Read MPEC 2017-F37 Read MPEC 2017-F39


    M.P.E.C. 2017-F38                                Issued 2017 Mar. 20, 19:21 UT
    
         The Minor Planet Electronic Circulars contain information on unusual
             minor planets and routine data on comets.  They are published
        on behalf of Division F of the International Astronomical Union by the
              Minor Planet Center, Smithsonian Astrophysical Observatory,
                              Cambridge, MA 02138, U.S.A.
    
                 Prepared using the Tamkin Foundation Computer Network
    
                                  MPC@CFA.HARVARD.EDU
                URL https://www.minorplanetcenter.net/    ISSN 1523-6714
    
                                       2017 FF1
    
    Observations:
         K17F01F* C2017 03 18.29094 11 49 23.60 +01 00 57.5          21.9 VqEF038G96
         K17F01F  C2017 03 18.29521 11 49 24.50 +01 00 55.1          21.1 VqEF038G96
         K17F01F  C2017 03 18.29774 11 49 28.750+01 01 09.66         21.3 wLEF038F51
         K17F01F  C2017 03 18.29949 11 49 25.40 +01 00 52.7          20.2 VqEF038G96
         K17F01F  C2017 03 18.30377 11 49 26.30 +01 00 50.7          20.2 VqEF038G96
         K17F01F  C2017 03 18.30937 11 49 31.389+01 01 03.23         21.5 wLEF038F51
         K17F01F  C2017 03 18.32103 11 49 33.993+01 00 56.96         21.5 wLEF038F51
         K17F01F  C2017 03 18.40918 11 49 49.31 +00 59 52.2                qEF038G96
         K17F01F  C2017 03 18.41303 11 49 50.07 +00 59 51.0                qEF038G96
         K17F01F  C2017 03 18.41684 11 49 51.01 +00 59 49.8          21.6 VqEF038G96
         K17F01F  C2017 03 18.42069 11 49 51.82 +00 59 46.6          21.7 VqEF038G96
         K17F01F  C2017 03 19.30830 11 53 19.32 +00 52 17.4          21.5 VqEF038G96
         K17F01F  C2017 03 19.31368 11 53 20.31 +00 52 14.8          21.8 VqEF038G96
         K17F01F  C2017 03 19.31897 11 53 21.34 +00 52 12.2          21.9 VqEF038G96
         K17F01F  C2017 03 19.32497 11 53 22.40 +00 52 08.7          21.6 VqEF038G96
         K17F01F  C2017 03 20.32231 11 56 44.96 +00 44 41.8                qEF038G96
         K17F01F  C2017 03 20.32670 11 56 45.62 +00 44 40.1                qEF038G96
         K17F01F  C2017 03 20.33765 11 56 47.45 +00 44 35.6          21.6 VqEF038G96
    
    Observer details:
    F51 Pan-STARRS 1, Haleakala.  Observers B. Gibson, T. Goggia, S. Kahale,
        T. Lowe, A. Schultz, M. Willman.  Measurers K. Chambers, S. Chastel,
        L. Denneau, H. Flewelling, M. Huber, E. Lilly, E. Magnier, R. Wainscoat,
        C. Waters, R. Weryk.  1.8-m Ritchey-Chretien + CCD.
    G96 Mt. Lemmon Survey.  Observer G. J. Leonard.  Measurers E. J. Christensen,
        D. C. Fuls, A. R. Gibbs, A. D. Grauer, J. A. Johnson, R. A. Kowalski,
        S. M. Larson, G. J. Leonard, R. G. Matheny, R. L. Seaman, F. C. Shelly.
        1.5-m reflector + 10K CCD.
    
    Orbital elements:
    2017 FF1                                                 Earth MOID = 0.0077 AU
    Epoch 2017 Feb. 16.0 TT = JDT 2457800.5                 MPC
    M   3.84958              (2000.0)            P               Q
    n   0.26914238     Peri.  302.89998     -0.51472616     -0.85735425
    a   2.3758262      Node   178.07861     +0.79457858     -0.47739793
    e   0.6176170      Incl.    1.40661     +0.32202772     -0.19244457
    P   3.66           H   26.0           G   0.15           U   7
    Residuals in seconds of arc
    170318 G96  1.0+  0.2-    170318 F51  0.0   0.1+    170319 G96  0.1-  0.3+
    170318 G96  0.5+  0.3-    170318 G96  0.3+  1.1-    170319 G96  0.5+  0.3+
    170318 F51  0.2-  0.2+    170318 G96  1.0-  0.2-    170319 G96  0.5-  0.4-
    170318 G96  0.0   0.4-    170318 G96  0.5+  0.7+    170320 G96  0.4+  0.2-
    170318 G96  0.5-  0.0     170318 G96  0.1-  0.5-    170320 G96  0.5-  0.1-
    170318 F51  0.0   0.1+    170319 G96  0.3+  0.4+    170320 G96  0.1+  0.0
    
    Ephemeris:
    2017 FF1                 a,e,i = 2.38, 0.62, 1                   q = 0.9085
    Date    TT    R. A. (2000) Decl.     Delta      r     Elong.  Phase     V
    2017 02 18    01 47 53.0 +03 22 16   0.1018  0.9372    57.3   117.5    25.6
    ...
    2017 03 05    07 27 25.2 +08 14 04   0.02716 1.0083   126.7    52.1    20.1
    ...
    2017 03 13    11 15 14.0 +02 16 46   0.06559 1.0593   175.8     4.0    20.6
    ...
    2017 03 19    11 52 10.8 +00 55 31   0.1064  1.1019   179.5     0.5    21.4
    2017 03 20    11 55 42.4 +00 47 41   0.1136  1.1094   179.3     0.6    21.6
    2017 03 21    11 58 48.9 +00 40 46   0.1208  1.1169   179.0     0.9    21.8
    ...
    2017 03 27    12 11 38.3 +00 11 27   0.1658  1.1633   176.1     3.4    22.8
    ...
    2017 04 04    12 20 58.6 -00 13 57   0.2308  1.2284   170.5     7.7    23.8
    ...
    2017 04 19    12 31 32.9 -01 00 49   0.3707  1.3563   158.6    15.6    25.4
    
    A. U. Tomatic                (C) Copyright 2017 MPC           M.P.E.C. 2017-F38
    

    Read MPEC 2017-F37 Read MPEC 2017-F39


    MPEC number:

    Enter an MPEC number in one of the following forms:

    • 1997-B01 (the full form)
    • J97B01 (the packed version of the full form)
    • B01 (the abbreviated form)